Regional Weather Roundup
Issued by NWS

Home | Current Version | Previous Version | Text Only | Print | Product List | Glossary Off
Versions: 1 2 3 4 5 6 7 8 9 10 11 12 13 14 15 16 17 18 19 20 21 22 23 24 25 26 27 28 29 30 31 32 33 34 35 36 37 38 39 40 41 42 43 44 45 46 47 48 49 50

000
ASUS43 KLMK 241510
RWRKY
KENTUCKY REGIONAL WEATHER ROUNDUP
NATIONAL WEATHER SERVICE LOUISVILLE KY
1100 AM EDT MON APR 24 2017

NOTE "FAIR" INDICATES FEW OR NO CLOUDS BELOW 12,000 FEET
WITH NO SIGNIFICANT WEATHER AND/OR OBSTRUCTIONS TO VISIBILITY.

KYZ001>023-026-027-061>063-070>075-241600-
WESTERN AND SOUTH CENTRAL KENTUCKY

CITY           SKY/WX    TMP DP  RH WIND       PRES   REMARKS
PADUCAH        SUNNY     66  47  50 NE7       29.89F
HENDERSON      SUNNY     63  43  48 N7        29.91F
OWENSBORO      SUNNY     63  45  51 N8        29.90S
HOPKINSVILLE   MOSUNNY   60  52  75 NE7       29.87S
BOWLING GREEN  MOSUNNY   63  54  72 E7        29.86F
GLASGOW        PTSUNNY   59  51  75 NE6       29.86F
$$

KYZ024-025-028>034-038-045-046-053-241600-
NORTH CENTRAL KENTUCKY

CITY           SKY/WX    TMP DP  RH WIND       PRES   REMARKS
LOUISVILLE/SDF MOSUNNY   67  47  48 NE10      29.88F
LOUISVILLE/LOU   N/A     66  47  50 NE7       29.88F
FORT KNOX      SUNNY     63  47  56 NE14G20   29.86S
$$

KYZ035>037-039>044-047>052-055>060-089>105-241600-
NORTHEAST KENTUCKY

CITY           SKY/WX    TMP DP  RH WIND       PRES   REMARKS
LEXINGTON      CLOUDY    65  50  58 NE17      29.87F
COVINGTON      MOSUNNY   62  40  44 NE13      29.92F
FRANKFORT      CLOUDY    62  44  51 NE13      29.86F
$$

KYZ054-064>069-076>088-106>120-241600-
SOUTHEAST KENTUCKY

CITY           SKY/WX    TMP DP  RH WIND       PRES   REMARKS
JACKSON        CLOUDY    53  48  83 CALM      29.89R
LONDON         CLOUDY    54  48  80 N10       29.86R
SOMERSET       CLOUDY    54  50  87 E9        29.87S
MIDDLESBORO    MOSUNNY   61  53  73 CALM      29.83S
MONTICELLO     NOT AVBL
$$





USA.gov is the U.S. government's official web portal to all federal, state and local government web resources and services.